Location: Table Mountain
(47.2500°N, 120.5778°W)
Time: 00:49:18
(UTC-07:00)

ISS - Pass Details

Date: 11 October 2017
Orbit: 400 x 408 km, 51.6° (Epoch: 24 October)

Event Time Altitude Azimuth Distance (km) Brightness Sun altitude
Rises 18:54:25 0° 294° (WNW) 2,321 1.3 -6.4°
Reaches altitude 10° 18:56:30 10° 297° (WNW) 1,461 0.0 -6.7°
Maximum altitude 18:59:46 63° 20° (NNE) 457 -3.7 -7.3°
Drops below altitude 10° 19:03:01 10° 102° (ESE) 1,461 -1.6 -7.8°
Enters shadow 19:03:03 10° 102° (ESE) 1,477 -1.6 -7.8°
